#timestamp,LO_Frequency,Hit,StdDev 
1513620015.7,286046977.8,N
1513620035.6,286046982.8,N
1513620055.4,286046979.8,N
1513620075.2,286046980.1,Y
1513620095.1,286046992.0,P
1513620096.0,286046992.0,N
1513620115.8,286046991.8,N
1513620135.6,286046988.8,N
1513620155.5,286046986.4,Y
1513620175.3,286046996.7,P
1513620195.1,286046993.8,N
1513620215.9,286046990.3,P
1513620235.7,286046985.4,Y
1513620255.5,286046994.1,P
1513620275.4,286046995.9,P
1513620295.2,286046999.1,N
1513620315.0,286046996.0,N
1513620315.9,286046996.0,N
1513620335.8,286046992.9,Y
1513620355.6,286046995.2,P
1513620375.4,286046995.1,P
1513620395.3,286046992.4,P
1513620415.1,286046990.2,Y
1513620416.0,286046990.2,P
1513620435.8,286046997.4,N
1513620455.7,286047000.8,N
1513620475.5,286047000.9,N
1513620495.3,286047000.2,N
1513620515.2,286046998.4,N
1513620535.9,286046991.9,N
1513620555.7,286046991.2,N
1513620575.6,286046993.0,N
1513620595.4,286046992.6,N
1513620615.2,286046993.4,N
1513620635.0,286046995.4,N
1513620635.9,286046995.4,N
1513620655.8,286046996.0,N
1513620675.6,286046990.7,N
1513620695.4,286046991.2,N
1513620715.3,286046989.6,N
1513620735.1,286046992.4,N
1513620755.8,286046991.1,N
1513620775.7,286046992.6,N
1513620795.5,286046994.2,N
1513620815.3,286046997.7,N
1513620835.2,286046997.3,N
1513620855.9,286046993.6,N
1513620875.7,286046996.4,N
1513620895.6,286046994.7,N
1513620915.4,286046994.6,N
1513620935.2,286046993.9,N
1513620955.0,286046994.4,N
1513620955.9,286046994.4,N
1513620975.8,286046997.4,N
1513620995.6,286046998.6,N
1513621015.4,286047002.4,N
1513621035.3,286047000.1,N
1513621055.1,286047000.8,N
1513621075.8,286046995.2,N
1513621095.7,286046995.9,N
1513621115.5,286046993.4,N
1513621135.3,286046993.3,N
1513621155.2,286046993.6,N
1513621175.9,286046994.9,N
1513621195.7,286046998.5,N
1513621215.6,286046997.0,N
1513621235.4,286047001.2,N
1513621255.2,286046998.6,N
1513621275.0,286047000.2,N
1513621275.9,286047000.2,N
1513621295.8,286047000.2,N
1513621315.6,286046998.5,N
1513621335.4,286047000.1,N
1513621355.3,286047006.4,N
1513621375.1,286047009.8,Y
1513621395.8,286047016.4,P
1513621415.7,286047016.7,N
1513621435.5,286047014.5,N
1513621455.3,286047016.9,N
1513621475.2,286047013.2,N
1513621495.9,286047012.0,N
1513621515.7,286047009.0,N
1513621535.6,286047004.9,N
1513621555.4,286047004.4,N
1513621575.2,286047005.1,N
1513621595.0,286047005.5,N
1513621595.9,286047005.5,N
1513621615.8,286047004.2,N
1513621635.6,286047005.1,N
1513621655.4,286047010.9,N
1513621675.3,286047013.4,N
1513621695.1,286047015.6,N
1513621715.8,286047014.2,N
1513621735.7,286047012.7,N
1513621755.5,286047010.2,N
1513621775.3,286047006.5,N
1513621795.2,286047004.8,N
1513621815.9,286047006.6,N
1513621835.7,286047006.8,N
1513621855.5,286047007.5,N
1513621875.4,286047004.7,N
1513621895.2,286047008.1,N
1513621915.0,286047007.2,N
1513621915.9,286047007.2,N
1513621935.8,286047004.7,N
1513621955.6,286047005.3,N
1513621975.4,286047002.1,N
1513621995.3,286047005.5,N
1513622015.1,286047007.8,N
1513622016.0,286047007.8,N
1513622035.8,286047007.8,N
1513622055.7,286047009.7,Y
1513622075.5,286047003.8,P
1513622095.3,286047003.4,N
1513622115.2,286047001.5,N
1513622135.9,286046998.9,N
1513622155.7,286046997.9,N
1513622175.6,286046995.5,N
1513622195.4,286046997.9,N
1513622215.2,286046998.4,N
1513622235.0,286046999.0,N
1513622235.9,286046999.0,N
1513622255.8,286046999.3,N
1513622275.6,286046998.4,N
1513622295.4,286047000.5,N
1513622315.3,286046998.4,N
1513622335.1,286046997.9,N
1513622336.0,286046997.9,N
1513622355.8,286046997.9,N
1513622375.7,286046994.6,N
1513622395.5,286046993.2,N
1513622415.3,286046993.9,N
1513622435.2,286046994.9,N
1513622455.9,286046992.1,N
1513622475.7,286046992.4,N
1513622495.6,286046993.1,N
1513622515.4,286046991.5,N
1513622535.2,286046989.5,N
1513622555.0,286046989.9,N
1513622555.9,286046989.9,N
1513622575.8,286046987.4,N
1513622595.6,286046988.9,N
1513622615.4,286046989.6,N
1513622635.3,286046987.7,N
1513622655.1,286046984.4,Y
1513622675.8,286046989.4,P
1513622695.7,286046987.2,P
1513622715.5,286046989.8,P
1513622735.3,286046991.1,Y
1513622755.2,286046999.2,P
1513622775.0,286046997.8,N
1513622775.9,286046997.8,N
1513622795.7,286046999.6,N
1513622815.6,286046996.3,N
1513622835.4,286046995.7,N
1513622855.2,286046992.6,N
1513622875.1,286046990.3,Y
1513622876.0,286046990.3,P
1513622895.8,286046992.0,N
1513622915.6,286046994.0,N
1513622935.5,286046992.0,Y
1513622955.3,286047000.3,P
1513622975.1,286047000.6,N
1513622995.9,286047000.8,N
1513623015.7,286046998.5,N
1513623035.5,286047002.3,N
1513623055.4,286047001.8,N
1513623075.2,286047003.5,N
1513623095.0,286047004.4,N
1513623095.9,286047004.4,N
1513623115.8,286047004.4,N
1513623135.6,286047002.5,N
1513623155.4,286047002.0,N
1513623175.3,286047002.3,N
1513623195.1,286047004.2,N
1513623196.0,286047004.2,N
1513623215.8,286047003.6,N
1513623235.6,286047005.4,N
1513623255.5,286047007.4,N
1513623275.3,286047007.5,N
1513623295.1,286047008.5,N
1513623315.9,286047008.1,N
1513623335.7,286047011.2,Y
1513623355.5,286047011.9,P
1513623375.4,286047011.2,N
1513623395.2,286047015.9,P
1513623415.0,286047014.4,Y
1513623415.9,286047014.4,P
1513623435.8,286047005.5,N
1513623455.6,286047006.5,N
1513623475.4,286047010.7,Y
1513623495.3,286047002.3,P
1513623515.1,286047002.3,N
1513623535.8,286047000.9,N
1513623555.7,286047005.2,N
1513623575.5,286047003.2,N
1513623595.3,286047005.7,N
